RH
96 95 96 94 93 91 89 87 88 90 90 89 89 83 92 95 96 96 89 44 62 59 43 38 26 22 22 27 31 34 49 54 38 33 27 20 20 20 20 22 28 31 38 31 46
85 83 85 88 91 92 93 96 92 88 87 89 88 88 83 87 88 84 32 46 65 72 44 32 23 24 30 32 38 42 55 45 32 23 24 23 21 22 20 24 30 36 44 42 48
86 85 89 93 91 83 85 89 94 93 91 87 87 89 89 85 86 74 46 72 71 68 36 26 21 26 30 36 42 47 50 37 31 23 20 22 21 23 24 24 28 36 50 52 50
75 76 76 78 83 86 85 85 87 92 92 92 89 88 94 87 38 36 43 62 75 66 27 26 24 31 35 35 36 45 41 36 33 26 25 25 26 25 23 22 23 34 45 50 50
77 78 76 77 77 78 79 79 80 79 80 91 94 86 88 88 80 24 57 65 62 46 28 26 28 31 36 36 33 43 37 34 34 30 26 26 28 29 30 27 28 37 44 48 50
75 75 82 83 83 83 84 83 84 84 82 83 90 93 82 92 47 32 50 51 46 35 28 26 30 31 33 35 40 37 39 31 29 30 31 32 33 33 30 30 31 41 48 49 50
75 78 83 83 84 86 86 84 85 88 88 84 83 92 78 74 46 45 51 36 34 32 25 23 25 33 37 40 38 37 41 41 41 34 35 32 41 41 30 27 31 40 43 49 51
78 79 81 83 83 85 88 90 73 52 94 92 82 82 81 65 54 57 47 35 30 35 30 24 28 37 39 39 46 46 52 59 45 40 41 36 54 43 42 43 40 42 40 44 49
77 79 84 84 84 83 84 79 41 49 66 89 85 84 75 57 71 60 50 31 20 25 31 32 36 48 45 63 71 66 78 68 59 46 52 45 52 47 38 50 49 47 48 42 61
78 82 85 84 84 85 81 76 44 57 62 73 80 92 74 62 49 52 52 25 27 36 36 40 58 69 73 80 90 82 80 66 64 52 57 62 58 44 34 48 51 48 51 68 81
81 83 84 84 85 81 91 58 65 61 68 78 70 74 72 54 38 45 31 25 38 44 58 49 72 88 79 69 63 63 68 68 55 45 58 70 62 58 50 42 39 52 76 87 84
81 85 86 85 86 89 72 83 83 90 90 64 64 63 56 50 66 55 33 35 47 61 58 65 84 68 62 65 68 72 76 70 53 40 51 51 60 59 50 50 54 69 85 87 76
84 85 83 86 76 75 72 82 73 83 92 67 57 58 56 48 68 62 42 39 52 61 66 71 61 56 62 68 70 76 81 67 59 39 41 40 58 63 57 71 75 84 90 86 84
82 84 83 84 76 78 84 64 65 86 95 65 54 59 46 41 63 50 41 42 48 62 63 62 51 58 62 68 59 71 50 56 52 56 81 51 85 57 67 67 74 77 85 78 80
74 85 68 72 95 91 75 75 74 87 98 31 55 37 47 46 46 55 47 39 53 50 60 76 50 70 54 51 46 54 38 42 45 66 62 65 83 69 73 73 65 74 76 71 75
71 83 74 72 85 73 82 78 81 86 92 57 65 67 73 56 45 57 55 56 52 63 56 58 41 40 38 37 38 38 56 66 78 75 94 80 78 74 86 77 63 72 75 71 71
60 50 71 72 87 82 90 82 91 94 54 79 84 68 87 99 65 65 92 92 93 96 97 89 73 36 34 40 38 58 71 96 92 91 96 74 86 80 63 62 69 80 78 68 81
52 47 64 68 80 84 81 85 85 73 97 70 80 75 86 93 95 86 99 99 100 90 97 95 98 72 38 44 51 61 68 90 94 100 92 68 94 79 66 67 80 80 79 57 59
45 53 63 72 75 85 90 97 84 96 87 78 65 83 89 96 99 100 95 89 98 97 89 96 71 39 36 34 44 53 77 64 87 89 95 80 59 59 47 54 61 75 83 76 76
73 84 66 71 76 88 94 88 82 68 69 67 85 73 87 86 96 100 93 89 95 86 92 93 78 48 37 36 38 50 53 77 89 100 100 80 68 76 67 55 57 71 78 75 83
76 94 56 62 82 92 98 94 89 75 71 70 80 90 83 98 98 98 98 100 100 100 98 86 81 72 48 51 55 59 75 82 76 88 98 97 80 79 73 69 73 76 73 81 89
94 95 52 66 87 93 100 89 74 78 62 74 74 79 92 92 97 98 97 100 92 80 98 79 86 93 72 60 50 48 58 74 90 83 95 93 84 82 83 75 76 69 76 87 95
94 98 59 63 98 93 83 89 95 99 80 83 82 74 72 93 94 93 94 91 86 86 92 78 93 98 84 84 63 53 52 76 88 93 98 93 81 70 64 80 82 76 82 95 91
92 97 90 92 95 96 94 97 93 73 78 84 82 78 85 87 92 87 86 92 87 82 71 68 91 80 85 76 85 79 89 79 82 99 93 92 77 51 57 72 72 88 95 94 88
94 87 86 95 90 94 95 95 93 93 83 81 75 85 98 98 94 82 84 92 82 81 91 81 92 97 83 84 90 88 90 92 92 77 80 80 89 79 57 68 85 88 95 90 87
88 96 93 98 91 96 92 85 97 90 99 86 86 86 95 95 98 98 95 91 89 84 100 90 98 89 85 74 86 90 78 86 90 79 84 90 87 72 70 76 95 97 93 94 94
79 77 96 89 96 93 92 94 91 97 95 93 80 95 98 96 97 93 91 92 91 88 91 90 98 92 98 83 86 80 82 91 87 87 76 86 70 61 58 60 91 95 94 95 92
Wind_Speed
21 21 21 21 21 22 23 23 22 22 22 22 21 20 22 23 24 19 15 19 10 19 11 8 8 7 4 2 5 4 2 3 4 4 2 0 2 2 1 5 3 3 5 5 30
23 23 24 24 24 23 24 24 24 23 22 22 22 22 21 24 24 21 31 16 18 15 16 14 5 6 3 4 3 4 4 8 5 1 1 2 2 3 3 3 3 3 6 21 29
23 24 25 24 24 25 26 26 25 24 23 23 22 22 19 22 7 9 5 18 14 22 21 18 10 6 4 4 4 6 6 5 3 2 2 1 1 3 6 3 6 7 9 11 12
25 27 27 28 29 28 27 27 27 27 25 23 22 21 21 11 6 4 4 8 17 20 14 8 4 6 6 6 6 4 7 5 3 0 3 4 3 2 3 3 4 10 14 10 12
25 26 27 28 28 28 28 30 30 30 27 26 22 19 13 5 12 16 6 12 17 17 15 7 5 6 6 5 4 4 4 6 6 3 3 3 5 6 4 5 3 8 12 13 11
26 27 27 29 29 31 30 32 33 30 30 27 22 16 12 16 15 14 17 17 16 17 8 7 7 7 5 4 6 2 5 4 2 3 2 5 5 6 6 7 7 10 11 10 12
26 26 28 29 32 32 33 36 38 36 31 27 21 17 14 25 4 6 22 26 22 17 5 10 7 5 4 2 3 1 4 3 5 4 5 4 6 7 9 4 5 10 11 9 10
26 27 29 31 33 35 37 39 39 37 33 26 19 16 12 6 18 24 18 19 14 15 11 8 10 5 4 1 4 2 4 1 3 2 4 10 9 6 5 6 10 9 8 9 8
27 29 30 32 36 37 40 40 36 28 21 14 10 11 10 10 11 30 27 13 13 10 9 8 3 5 3 6 3 4 3 4 6 6 5 6 5 4 3 6 7 7 7 7 6
29 30 32 34 37 38 45 34 25 11 15 8 3 3 7 5 9 9 18 23 5 6 4 3 4 3 2 4 9 6 4 4 5 2 4 6 6 4 1 6 8 5 5 7 7
29 31 33 34 37 41 33 25 6 4 12 8 16 16 26 22 9 5 23 12 5 6 5 2 3 9 6 7 4 5 5 6 3 4 5 7 6 8 7 3 4 6 7 5 6
32 32 34 35 38 33 20 5 9 15 16 15 21 22 25 18 6 6 18 7 6 5 4 3 8 6 7 5 5 5 4 5 4 2 4 4 8 9 3 3 5 8 7 7 6
33 35 37 38 30 9 23 8 24 22 6 13 7 7 7 11 11 16 8 5 6 7 6 6 6 10 8 6 8 6 7 5 4 3 5 3 5 4 2 3 5 6 4 4 6
35 38 39 37 9 21 9 22 25 12 4 7 4 5 1 4 9 20 8 8 4 10 7 6 13 9 9 7 7 6 6 8 5 4 3 1 4 4 3 1 3 4 5 6 4
38 39 38 24 18 8 16 26 20 1 3 5 4 3 5 5 2 7 24 2 8 8 6 7 3 8 5 6 6 3 3 5 4 4 2 4 3 6 5 3 4 5 6 6 4
40 40 39 18 16 15 26 24 4 5 4 6 5 9 5 5 4 6 8 4 3 2 3 3 3 2 4 4 3 9 6 8 5 3 3 5 6 4 3 6 4 4 6 7 5
41 43 24 15 8 25 18 5 4 4 5 9 6 8 8 1 5 3 1 3 5 6 5 4 3 2 5 7 7 5 6 3 2 1 5 2 3 7 3 2 7 10 7 6 3
40 36 13 9 16 17 10 5 4 2 3 5 6 4 6 9 1 2 5 5 4 3 3 5 4 2 2 5 6 2 5 5 7 4 3 2 5 5 3 4 5 5 2 3 0
38 28 11 10 22 11 4 4 5 3 7 7 9 4 4 2 3 2 7 5 3 3 6 4 3 3 2 2 4 4 2 4 5 1 2 3 3 1 3 3 4 4 3 4 5
28 10 11 18 17 4 4 4 3 4 6 3 5 3 3 4 2 4 8 1 4 2 1 3 5 2 2 3 4 4 5 3 3 2 3 4 3 4 6 8 6 5 6 6 4
8 4 5 24 5 4 1 4 6 10 9 3 3 4 4 3 3 0 3 3 1 4 4 3 3 3 1 2 6 2 2 3 3 3 4 1 4 4 8 8 9 7 6 6 5
5 3 15 22 4 3 3 8 9 6 3 3 3 3 2 3 6 4 4 6 10 2 4 1 5 3 2 1 1 2 3 4 4 5 1 3 5 3 4 6 5 6 6 4 4
5 2 6 7 3 5 6 8 3 4 6 5 4 4 3 3 4 5 3 5 10 5 2 2 2 3 3 3 4 2 3 4 4 3 5 4 4 2 3 1 5 5 5 4 4
2 3 4 4 0 2 7 4 10 8 3 4 4 6 5 4 4 2 3 5 6 5 10 2 2 5 5 5 3 1 2 3 5 3 3 5 3 3 5 6 4 5 5 5 4
3 2 1 5 5 7 6 3 7 7 5 7 4 7 4 3 4 3 2 2 5 8 5 4 3 3 1 3 3 3 4 3 5 5 6 5 6 5 6 7 5 4 2 4 5
1 2 3 4 4 5 5 4 6 8 4 4 4 7 6 4 4 1 3 2 3 4 3 4 2 2 4 3 2 4 7 7 4 4 7 3 8 7 2 5 2 5 4 4 4
1 1 2 5 4 3 2 6 10 13 4 1 6 4 1 3 6 3 2 4 3 4 2 3 2 2 3 4 3 5 6 4 2 3 5 8 6 2 4 6 5 5 4 4 4
Wind_Direction
353 350 346 344 342 340 338 336 335 334 334 332 332 329 327 324 317 305 262 239 236 228 207 186 175 169 147 165 154 117 90 226 260 189 219 252 130 43 133 106 63 5 153 181 160
350 346 342 341 339 337 333 330 329 327 326 325 326 327 325 326 316 278 268 244 228 217 195 177 186 142 140 184 179 133 155 219 220 184 196 35 100 166 130 126 55 48 25 136 151
349 347 344 340 334 327 325 324 321 320 320 319 319 322 324 324 306 250 304 234 219 199 204 200 176 139 178 141 195 180 191 208 263 126 155 127 80 319 133 222 191 182 158 150 153
347 346 342 339 336 333 330 328 321 317 312 312 315 316 321 308 269 313 284 194 189 190 191 181 148 161 177 189 200 171 222 216 250 290 169 198 145 291 194 209 116 168 161 158 165
350 347 344 340 337 330 324 322 316 312 305 306 308 312 317 260 245 255 226 176 183 193 192 176 168 167 179 192 178 207 228 231 240 197 217 164 217 208 240 212 74 149 159 172 174
348 344 342 340 336 331 327 325 318 309 298 293 297 306 287 257 254 248 216 192 192 195 203 164 199 198 191 221 165 193 210 228 247 176 243 195 247 160 242 246 183 156 180 179 181
347 344 340 338 335 331 324 322 316 306 297 287 290 292 256 240 211 278 207 202 203 203 190 212 210 159 141 180 180 172 201 249 215 221 224 157 273 231 228 229 201 187 184 186 202
348 345 339 336 334 329 326 323 321 317 301 281 277 273 254 271 257 266 217 212 204 211 222 202 188 127 151 84 20 125 67 202 268 229 233 143 254 275 257 216 230 174 187 186 193
347 344 340 337 332 330 331 325 326 324 333 274 252 229 259 294 239 245 230 215 186 163 155 140 128 150 88 106 11 349 227 213 304 215 151 176 254 252 315 176 173 176 173 165 113
345 342 339 336 332 330 329 325 324 318 15 68 245 309 269 264 251 197 202 197 132 113 74 80 55 119 99 134 211 195 211 226 207 194 170 179 230 253 329 141 183 189 106 117 104
341 340 339 335 331 328 332 340 2 329 13 257 264 267 291 284 294 177 177 136 98 91 146 187 140 207 183 197 159 176 191 201 244 229 150 208 235 231 253 255 207 149 125 105 93
339 336 335 335 330 331 346 349 22 319 303 260 251 256 253 258 300 328 158 139 132 152 144 122 242 210 201 193 204 222 258 270 278 232 152 174 241 254 310 230 215 174 147 146 129
337 335 335 334 331 342 330 324 333 334 282 294 243 244 235 208 221 263 179 125 130 149 178 187 237 181 187 191 208 222 206 208 214 13 17 30 290 283 358 64 58 64 108 118 144
339 334 336 337 340 329 302 333 323 331 296 281 290 274 230 175 202 225 219 156 157 179 166 217 254 250 204 203 190 215 185 187 168 125 217 43 266 285 184 107 83 113 138 146 144
337 333 338 339 308 316 317 329 328 284 335 318 344 351 311 172 209 195 202 143 171 173 157 230 237 205 164 196 158 186 121 111 98 98 60 334 54 265 119 231 184 192 168 177 187
337 332 333 336 321 319 321 324 308 43 269 331 330 337 7 313 23 1 149 263 98 88 279 189 319 97 138 67 153 144 74 44 54 73 353 233 155 267 185 201 161 167 181 176 189
336 333 331 326 315 330 327 353 32 120 327 328 313 335 321 315 16 69 358 117 160 181 189 140 300 40 105 76 27 79 78 20 17 319 227 229 98 251 311 279 186 172 175 190 211
336 338 336 325 333 337 345 46 69 240 313 290 287 342 16 5 158 133 134 174 247 163 131 148 186 245 28 148 171 160 135 151 194 195 256 127 227 259 321 330 84 84 182 185 265
339 342 329 329 335 334 49 35 210 297 304 300 327 14 350 20 345 331 187 200 186 184 139 123 106 91 353 91 126 180 146 170 101 315 48 223 283 12 105 60 100 124 356 270 288
339 328 308 336 339 351 64 279 275 318 315 326 356 31 332 305 316 235 178 179 145 210 357 147 116 32 154 115 44 111 156 78 8 125 244 271 242 231 208 197 196 220 260 276 286
1 8 338 344 352 44 44 263 298 291 306 331 315 295 286 309 280 27 34 39 1 121 82 127 100 276 133 156 159 89 34 54 124 138 169 252 264 219 205 190 188 218 248 262 281
27 356 345 348 39 346 307 300 304 290 333 332 332 301 309 320 346 53 41 20 349 157 128 244 123 117 148 71 6 160 183 148 126 262 123 155 276 330 225 178 164 227 251 269 264
342 263 338 7 29 343 309 303 276 312 328 344 316 352 301 313 45 21 56 9 9 44 93 323 348 67 18 28 2 207 179 123 115 99 204 151 263 77 97 354 239 237 279 285 270
356 343 326 30 206 332 317 332 334 317 319 345 314 350 354 24 31 59 34 19 360 34 35 71 86 139 170 190 145 111 298 170 130 153 190 227 247 247 230 237 237 229 251 271 291
29 296 310 310 324 318 297 305 332 345 333 2 5 354 329 358 9 85 62 12 8 3 21 81 100 80 306 232 157 207 209 178 183 200 186 241 202 238 217 221 251 206 229 269 282
47 49 351 277 285 337 343 331 324 337 265 351 358 342 7 40 5 243 136 160 218 350 50 351 102 100 353 23 211 247 240 222 207 224 254 217 261 209 150 136 165 207 218 247 274
1 306 92 291 318 46 283 321 313 318 267 289 332 315 349 48 355 12 41 61 100 122 58 81 107 80 283 10 11 334 232 200 247 251 197 237 252 197 197 213 204 212 232 267 294